Regional Weather Roundup
Issued by NWS

Home | Current Version | Previous Version | Text Only | Print | Product List | Glossary Off
Versions: 1 2 3 4 5 6 7 8 9 10 11 12 13 14 15 16 17 18 19 20 21 22 23 24 25 26 27 28 29 30 31 32 33 34 35 36 37 38 39 40 41 42 43 44 45 46 47 48 49 50

000
ASUS45 KSLC 260810
RWRUT

UTAH REGIONAL WEATHER ROUNDUP
NATIONAL WEATHER SERVICE SALT LAKE CITY UT
100 AM MST WED NOV 26 2014

UTZ001>011-023>025-260900-

NORTHERN UTAH

CITY           SKY/WX    TMP DP  RH WIND       PRES   REMARKS
HILL AFB       PTCLDY    44  32  62 CALM      30.33R
LOGAN          CLOUDY    43  35  73 CALM      30.28R
OGDEN          PTCLDY    46  33  60 SW7       30.32R
PROVO AIRPORT  PTCLDY    32  25  74 S3        30.35S
SALT LAKE CITY MOCLDY    42  29  59 SE12      30.31S
VERNAL         CLEAR     28  22  78 W7        30.22R WCI  21
WENDOVER       CLEAR     46  30  53 W12       30.33S
HEBER CITY     PTCLDY    32  32 100 E6        30.32S WCI  26
WEST JORDAN    CLOUDY    39  30  70 SW5       30.33R

$$

UTZ012>022-026-027-260900-

SOUTHERN/CENTRAL UTAH

CITY           SKY/WX    TMP DP  RH WIND       PRES   REMARKS
BLANDING       CLEAR     31  10  41 CALM      30.42R
BRYCE CANYON   CLEAR     26  18  71 W7        30.43S WCI  18
CEDAR CITY     CLEAR     26  18  71 NE5       30.40S WCI  20
DELTA          CLEAR     29  24  83 SW9       30.37R WCI  20
MILFORD        CLEAR     27  17  66 S8        30.39R WCI  19
MOAB/CYNLANDS  CLEAR     21   5  50 CALM      30.30S
PRICE          CLOUDY    33  21  61 E7        30.28S WCI  27
ST GEORGE      MOSUNNY   37   9  30 CALM      30.44S
KANAB          CLEAR     27   9  46 N3        30.46F

$$

REGIONAL REPORTS     COLORADO/ARIZONA

CITY           SKY/WX    TMP DP  RH WIND       PRES   REMARKS
CRAIG, CO      CLOUDY    31  25  78 E8        30.22R WCI  23
GRAND JUNCTION CLOUDY    28  21  75 E3        30.31F
RIFLE          CLOUDY    28  23  81 CALM      30.32R
MONTROSE       CLOUDY    32  22  66 CALM      30.33S
CORTEZ         CLEAR     21  13  71 NE12      30.36S WCI   9
PAGE, AZ       CLEAR     40  10  29 CALM      30.37F HAZE
GRAND CANYON   PTCLDY    20   6  55 CALM      30.44S
KINGMAN        CLEAR     38   8  29 E8        30.38F WCI  32
FLAGSTAFF      CLEAR     25  12  58 CALM      30.41S

$$

REGIONAL REPORTS    NEVADA/IDAHO/WYOMING

CITY           SKY/WX    TMP DP  RH WIND       PRES   REMARKS
LAS VEGAS, NV  CLEAR     47  12  24 S10       30.35S
ELY            CLEAR     25  32 100 S8        30.47S WCI  16
ELKO           CLEAR     30  27  88 E3        30.41F
POCATELLO, ID  CLOUDY    45  38  76 SW30G39   30.22R
BURLEY         PTCLDY    46  35  65 W14       30.28R
EVANSTON, WY   PTCLDY    37  31  78 W36G45    30.23F WCI  23
ROCK SPRINGS   CLOUDY    37  31  78 W37G44    30.13R WCI  23

$$



USA.gov is the U.S. government's official web portal to all federal, state and local government web resources and services.